Nenana, AK

12:00 PM AKDT on March 25, 2017 (GMT -0800)
Nenana Municipal

Weather History for PANN - March, 2013

Change the Weather History Date:

Thursday, March 7, 2013

  Actual Average Record
Temperature  
Mean Temperature 32 °F -  
Max Temperature 45 °F 20 °F 46 °F (2015)
Min Temperature 19 °F -7 °F -52 °F (1971)
Degree Days  
Heating Degree Days 33    
Moisture  
Dew Point 10 °F    
Average Humidity 60    
Maximum Humidity 80    
Minimum Humidity 45    
Precipitation  
Precipitation 0.00 in - - ()
Sea Level Pressure  
Sea Level Pressure 29.61 in    
Wind  
Wind Speed 8 mph (ENE)    
Max Wind Speed 20 mph    
Max Gust Speed 26 mph    
Visibility 10 miles    
Events      
Averages and records for this station are not official NWS values.
T = Trace of Precipitation, MM = Missing Value Source: NWS Daily Summary

Daily Weather History Graph

Daily Weather History Graph

Search for Another Location

Airport or City:

Trip Planner

Search our weather history database for the weather conditions in past years. The results will help you decide how hot, cold, wet, or windy it might be!

Date:

Astronomy

Mar. 07, 2013 Rise Set
Actual Time 7:41 AM AKST 6:33 PM AKST
Civil Twilight 6:53 AM AKST 7:22 PM AKST
Nautical Twilight 5:57 AM AKST 8:18 PM AKST
Astronomical Twilight 4:57 AM AKST 9:19 PM AKST
Moon 6:10 AM AKST (3/7) 1:16 PM AKST (3/7)
Length of Visible Light 12h 28m
Length of Day
10h 52m
Waning Crescent, 19% of the Moon is Illuminated
Mar 7
Waning Crescent
Mar 11
New
Mar 19
First Quarter
Mar 27
Full
Apr 2
Last Quarter

Hourly Weather History & Observations

Time (AKST) Temp. Windchill Dew Point Humidity Pressure Visibility Wind Dir Wind Speed Gust Speed Precip Events Conditions
12:53 AM -4.0 °F - -9.0 °F 79% 29.86 in 10.0 mi Calm Calm - N/A   Clear
1:53 AM -4.0 °F - -9.0 °F 79% 29.82 in 10.0 mi Calm Calm - N/A   Clear
2:53 AM -5.1 °F - -9.9 °F 80% 29.79 in 10.0 mi Calm Calm - N/A   Clear
3:53 AM -5.1 °F - -9.9 °F 80% 29.76 in 10.0 mi Calm Calm - N/A   Clear
4:53 AM 18.0 °F 3.6 °F 6.1 °F 60% 29.72 in 10.0 mi East 15.0 mph - N/A   Clear
5:53 AM 19.9 °F 5.2 °F 8.1 °F 60% 29.68 in 10.0 mi ENE 17.3 mph 24.2 mph N/A   Clear
6:53 AM 19.0 °F 3.2 °F 7.0 °F 59% 29.66 in 10.0 mi East 19.6 mph - N/A   Clear
7:53 AM 18.0 °F 3.1 °F 7.0 °F 62% 29.66 in 10.0 mi East 16.1 mph 24.2 mph N/A   Clear
8:53 AM 19.9 °F 5.2 °F 8.1 °F 60% 29.62 in 10.0 mi East 17.3 mph 24.2 mph N/A   Clear
9:53 AM 21.9 °F 8.2 °F 9.0 °F 58% 29.59 in 10.0 mi East 16.1 mph 21.9 mph N/A   Clear
10:53 AM 23.0 °F 8.7 °F 9.0 °F 55% 29.57 in 10.0 mi ENE 18.4 mph 24.2 mph N/A   Clear
11:53 AM 24.1 °F 11.5 °F 10.0 °F 55% 29.54 in 10.0 mi East 15.0 mph 21.9 mph N/A   Clear
12:53 PM 26.1 °F 13.6 °F 10.9 °F 53% 29.52 in 10.0 mi East 16.1 mph - N/A   Clear
1:53 PM 28.0 °F 15.3 °F 12.0 °F 51% 29.47 in 10.0 mi ENE 18.4 mph 26.5 mph N/A   Clear
2:53 PM 30.0 °F 17.5 °F 14.0 °F 51% 29.43 in 10.0 mi East 19.6 mph - N/A   Clear
3:53 PM 32.0 °F 20.8 °F 15.1 °F 50% 29.41 in 10.0 mi East 17.3 mph 25.3 mph N/A   Clear
4:53 PM 33.1 °F 23.9 °F 15.1 °F 48% 29.40 in 10.0 mi East 12.7 mph - N/A   Clear
5:53 PM 35.1 °F 26.4 °F 16.0 °F 46% 29.40 in 10.0 mi East 12.7 mph - N/A   Clear
6:53 PM 34.0 °F 26.0 °F 16.0 °F 48% 29.41 in 10.0 mi East 10.4 mph - N/A   Clear
7:53 PM 35.1 °F 26.9 °F 17.1 °F 48% 29.41 in 10.0 mi ENE 11.5 mph - N/A   Clear
8:53 PM 26.1 °F 20.5 °F 12.0 °F 55% 29.42 in 10.0 mi Variable 4.6 mph - N/A   Clear
9:53 PM 21.9 °F 13.4 °F 10.0 °F 60% 29.45 in 10.0 mi Variable 6.9 mph - N/A   Clear
10:53 PM 21.0 °F 13.4 °F 10.0 °F 63% 29.45 in 10.0 mi NNW 5.8 mph - N/A   Clear
11:53 PM 19.9 °F 14.9 °F 8.1 °F 60% 29.48 in 10.0 mi NW 3.5 mph - N/A   Clear